Weather in Bolshoy Zmeinets

Russia / Kursk Oblast     52°05′13″N   36°51′13″E
temp.,
°C
wind,
m/s
gust,
m/s
humid.,
%
clouds,
%
prec.,
mm/h
press.,
hPa
HPBL,
m
25 february, thu
thu2500:00−10ssw4895100 0.1 1032246
03:00−8sw4896100 0.2 1030247
06:00−6sw4896100 0.1 1028202
09:000wsw61295100 0.1 1026595
12:00+1wsw511100100 0.0 1023345
15:00+2w715100100 0.1 1022381
18:00+2w613100100 0.2 1021332
21:00+2wnw51299100 0.2 1021313
26 february, fri
fri2600:00+2wnw51299100 0.3 1021287
03:00+2w51399100 0.4 1021292
06:00+2wnw61199100 0.0 1020272
09:00+2w61299100 0.0 1019329
12:00+2wsw814100100 0.0 1017398
15:00+2w816100100 0.0 1015469
18:00+2w71599100 0.1 1014403
21:00+2w6149899 0.1 1014413
27 february, sat
sat2700:00+1w51297100 0.0 1012418
03:00+1w61197100 0.0 1012424
06:00+1w61297100 0.1 1010536
09:00+1wnw61297100 0.2 1009563
12:00+1wnw6129993 0.1 1009552
15:00+1wnw61110096 0.2 1010553
18:000wnw51097100 0.2 1009437
21:000nw4798100 0.6 1011337
28 february, sun
sun2800:000nnw4797100 0.3 1011380
03:00−1nnw4897100 0.6 1013327
06:00−2n489698 0.1 1014383
09:00−1nnw489698 0.1 1016469
12:00−1n579191 0.1 1018739
15:00−1n578796 0.2 1019862
18:00−2nnw4993100 0.1 1021486
21:00−3nnw4996100 0.3 1023358
1 march, mon
mon100:00−3nnw389599 0.1 1025280
03:00−3nnw379598 0.1 1026277
06:00−5nnw3696100 0.1 1027189
09:00−4nnw2596100 0.2 1029253
12:00−3nnw358092 0.1 1031862
15:00−3nnw358570 0.1 1031680
18:00−5wnw349237 0.0 103174
21:00−5w369344 0.0 1031117